| time (UTC) | temp F | wind direction | speed MPH | gust MPH | rain 1hr in | rain 24hr in | rain mn in | humidity % | barometer mb |
| 20260906144816 | 60 | 39 | 0.0 | 5.0 | 0.00 | 0.00 | 0.00 | 45 | 1033.2 |
| 20260906143351 | 58 | 41 | 3.0 | 6.0 | 0.00 | 0.00 | 0.00 | 49 | 1033.2 |
| 20260906141823 | 54 | 32 | 3.0 | 9.0 | 0.00 | 0.00 | 0.00 | 54 | 1033.0 |
| 20260906140339 | 50 | 27 | 0.0 | 1.0 | 0.00 | 0.00 | 0.00 | 66 | 1033.0 |
| 20260906134815 | 49 | 26 | 0.0 | 0.0 | 0.00 | 0.00 | 0.00 | 68 | 1032.9 |
| 20260906133330 | 49 | 27 | 0.0 | 0.0 | 0.00 | 0.00 | 0.00 | 66 | 1032.7 |
| 20260906131823 | 49 | 26 | 0.0 | 0.0 | 0.00 | 0.00 | 0.00 | 64 | 1032.4 |
| 20260906130336 | 50 | 27 | 0.0 | 3.0 | 0.00 | 0.00 | 0.00 | 62 | 1032.2 |
| 20260906124830 | 51 | 26 | 2.0 | 4.0 | 0.00 | 0.00 | 0.00 | 61 | 1032.1 |
| 20260906123325 | 51 | 32 | 2.0 | 8.0 | 0.00 | 0.00 | 0.00 | 62 | 1032.1 |
| 20260906121818 | 52 | 32 | 0.0 | 4.0 | 0.00 | 0.00 | 0.00 | 60 | 1031.9 |
| 20260906120333 | 52 | 33 | 1.0 | 4.0 | 0.00 | 0.00 | 0.00 | 59 | 1032.0 |
| 20260906114826 | 52 | 30 | 2.0 | 6.0 | 0.00 | 0.00 | 0.00 | 60 | 1032.0 |
| 20260906113343 | 52 | 33 | 3.0 | 5.0 | 0.00 | 0.00 | 0.00 | 60 | 1031.9 |
| 20260906111835 | 54 | 33 | 0.0 | 5.0 | 0.00 | 0.00 | 0.00 | 58 | 1031.8 |
| 20260906110323 | 53 | 39 | 2.0 | 7.0 | 0.00 | 0.00 | 0.00 | 59 | 1032.0 |
| 20260906104816 | 53 | 23 | 3.0 | 5.0 | 0.00 | 0.00 | 0.00 | 58 | 1031.8 |
| 20260906103339 | 54 | 23 | 3.0 | 4.0 | 0.00 | 0.00 | 0.00 | 56 | 1031.7 |
| 20260906101851 | 54 | 23 | 5.0 | 9.0 | 0.00 | 0.00 | 0.00 | 56 | 1031.8 |
| 20260906100322 | 51 | 57 | 1.0 | 5.0 | 0.00 | 0.00 | 0.00 | 63 | 1031.8 |
| 20260906094815 | 51 | 185 | 0.0 | 2.0 | 0.00 | 0.00 | 0.00 | 64 | 1031.8 |
| 20260906093351 | 50 | 191 | 0.0 | 2.0 | 0.00 | 0.00 | 0.00 | 63 | 1031.9 |
| 20260906091822 | 50 | 192 | 0.0 | 2.0 | 0.00 | 0.00 | 0.00 | 63 | 1031.8 |
| 20260906090336 | 51 | 191 | 0.0 | 1.0 | 0.00 | 0.00 | 0.00 | 62 | 1031.9 |
| 20260906084830 | 51 | 191 | 0.0 | 3.0 | 0.00 | 0.00 | 0.00 | 61 | 1031.9 |
| 20260906083324 | 52 | 191 | 0.0 | 0.0 | 0.00 | 0.00 | 0.00 | 61 | 1032.0 |
| 20260906081817 | 52 | 191 | 0.0 | 2.0 | 0.00 | 0.00 | 0.00 | 60 | 1032.2 |
| 20260906080310 | 53 | 191 | 0.0 | 0.0 | 0.00 | 0.00 | 0.00 | 59 | 1032.2 |
| 20260906074825 | 53 | 191 | 0.0 | 0.0 | 0.00 | 0.00 | 0.00 | 59 | 1032.3 |
| 20260906073320 | 53 | 191 | 0.0 | 0.0 | 0.00 | 0.00 | 0.00 | 58 | 1032.4 |
| 20260906071833 | 53 | 191 | 0.0 | 0.0 | 0.00 | 0.00 | 0.00 | 59 | 1032.5 |
| 20260906070347 | 52 | 191 | 0.0 | 0.0 | 0.00 | 0.00 | 0.00 | 58 | 1032.4 |
| 20260906064821 | 53 | 191 | 0.0 | 0.0 | 0.00 | 0.00 | 0.00 | 56 | 1032.6 |
| 20260906063316 | 53 | 191 | 0.0 | 0.0 | 0.00 | 0.00 | 0.00 | 55 | 1032.6 |
| 20260906061829 | 54 | 191 | 0.0 | 0.0 | 0.00 | 0.00 | 0.00 | 56 | 1032.5 |
| 20260906060343 | 54 | 191 | 0.0 | 0.0 | 0.00 | 0.00 | 0.00 | 56 | 1032.4 |
| 20260906054837 | 55 | 191 | 0.0 | 0.0 | 0.00 | 0.00 | 0.00 | 56 | 1032.6 |
| 20260906053314 | 55 | 191 | 0.0 | 0.0 | 0.00 | 0.00 | 0.00 | 54 | 1032.6 |
| 20260906051827 | 56 | 191 | 0.0 | 0.0 | 0.00 | 0.00 | 0.00 | 53 | 1032.8 |
| 20260906050343 | 57 | 191 | 0.0 | 0.0 | 0.00 | 0.00 | 0.00 | 51 | 1032.8 |
| 20260906044816 | 58 | 191 | 0.0 | 0.0 | 0.00 | 0.00 | 0.00 | 49 | 1032.9 |
| 20260906043331 | 60 | 191 | 0.0 | 0.0 | 0.00 | 0.00 | 0.00 | 47 | 1032.9 |
| 20260906041825 | 61 | 191 | 0.0 | 1.0 | 0.00 | 0.00 | 0.00 | 45 | 1033.0 |
| 20260906040319 | 62 | 191 | 0.0 | 1.0 | 0.00 | 0.00 | 0.00 | 41 | 1033.0 |
| 20260906034813 | 64 | 191 | 0.0 | 2.0 | 0.00 | 0.00 | 0.00 | 39 | 1033.0 |
| 20260906033328 | 66 | 191 | 0.0 | 3.0 | 0.00 | 0.00 | 0.00 | 37 | 1033.1 |
| 20260906031842 | 66 | 191 | 0.0 | 3.0 | 0.00 | 0.00 | 0.00 | 35 | 1033.0 |
| 20260906030336 | 66 | 191 | 3.0 | 6.0 | 0.00 | 0.00 | 0.00 | 35 | 1032.7 |
| 20260906024830 | 67 | 191 | 4.0 | 9.0 | 0.00 | 0.00 | 0.00 | 35 | 1032.6 |
| 20260906023325 | 67 | 154 | 1.0 | 7.0 | 0.00 | 0.00 | 0.00 | 36 | 1032.3 |
| 20260906021816 | 67 | 228 | 5.0 | 11.0 | 0.00 | 0.00 | 0.00 | 37 | 1032.2 |
| 20260906020352 | 67 | 269 | 1.0 | 6.0 | 0.00 | 0.00 | 0.00 | 37 | 1032.3 |
| 20260906014825 | 68 | 270 | 0.0 | 1.0 | 0.00 | 0.00 | 0.00 | 35 | 1032.2 |
| 20260906013320 | 70 | 270 | 0.0 | 2.0 | 0.00 | 0.00 | 0.00 | 34 | 1032.1 |
| 20260906011812 | 72 | 270 | 0.0 | 2.0 | 0.00 | 0.00 | 0.00 | 30 | 1032.2 |
| 20260906010326 | 74 | 271 | 3.0 | 9.0 | 0.00 | 0.00 | 0.00 | 27 | 1032.4 |
| 20260906004820 | 75 | 273 | 1.0 | 11.0 | 0.00 | 0.00 | 0.00 | 27 | 1032.3 |
| 20260906003337 | 77 | 185 | 1.0 | 8.0 | 0.00 | 0.00 | 0.00 | 26 | 1032.1 |
| 20260906001828 | 78 | 261 | 4.0 | 8.0 | 0.00 | 0.00 | 0.00 | 25 | 1031.9 |
| 20260906000315 | 78 | 296 | 3.0 | 15.0 | 0.00 | 0.00 | 0.00 | 26 | 1032.0 |
| 20260905234836 | 77 | 255 | 4.0 | 10.0 | 0.00 | 0.00 | 0.00 | 25 | 1032.1 |
| 20260905233323 | 80 | 246 | 4.0 | 12.0 | 0.00 | 0.00 | 0.00 | 23 | 1031.9 |
| 20260905231816 | 80 | 232 | 3.0 | 13.0 | 0.00 | 0.00 | 0.00 | 25 | 1031.8 |
| 20260905230311 | 80 | 222 | 6.0 | 10.0 | 0.00 | 0.00 | 0.00 | 23 | 1031.9 |
| 20260905224826 | 80 | 179 | 3.0 | 11.0 | 0.00 | 0.00 | 0.00 | 25 | 1032.1 |
| 20260905223324 | 80 | 199 | 3.0 | 9.0 | 0.00 | 0.00 | 0.00 | 24 | 1032.1 |
| 20260905221817 | 81 | 228 | 6.0 | 12.0 | 0.00 | 0.00 | 0.00 | 23 | 1032.2 |
| 20260905220332 | 80 | 306 | 4.0 | 9.0 | 0.00 | 0.00 | 0.00 | 27 | 1032.1 |
| 20260905214844 | 80 | 286 | 2.0 | 13.0 | 0.00 | 0.00 | 0.00 | 25 | 1032.5 |
| 20260905213345 | 79 | 258 | 3.0 | 10.0 | 0.00 | 0.00 | 0.00 | 25 | 1032.5 |
| 20260905211838 | 79 | 245 | 4.0 | 13.0 | 0.00 | 0.00 | 0.00 | 26 | 1032.5 |
| 20260905210331 | 79 | 186 | 5.0 | 11.0 | 0.00 | 0.00 | 0.00 | 27 | 1032.6 |
| 20260905204825 | 79 | 250 | 6.0 | 11.0 | 0.00 | 0.00 | 0.00 | 26 | 1032.8 |
| 20260905203313 | 78 | 220 | 4.0 | 12.0 | 0.00 | 0.00 | 0.00 | 27 | 1033.2 |
| 20260905201825 | 77 | 218 | 3.0 | 12.0 | 0.00 | 0.00 | 0.00 | 29 | 1033.5 |
| 20260905200348 | 77 | 202 | 3.0 | 9.0 | 0.00 | 0.00 | 0.00 | 28 | 1033.6 |
| 20260905194831 | 78 | 247 | 4.0 | 12.0 | 0.00 | 0.00 | 0.00 | 27 | 1033.6 |
| 20260905193326 | 78 | 264 | 5.0 | 12.0 | 0.00 | 0.00 | 0.00 | 29 | 1033.6 |
| 20260905191811 | 78 | 257 | 7.0 | 12.0 | 0.00 | 0.00 | 0.00 | 28 | 1033.8 |
| 20260905190354 | 76 | 192 | 5.0 | 12.0 | 0.00 | 0.00 | 0.00 | 29 | 1033.9 |
| 20260905184827 | 75 | 228 | 5.0 | 11.0 | 0.00 | 0.00 | 0.00 | 31 | 1034.1 |
| 20260905183314 | 75 | 177 | 3.0 | 10.0 | 0.00 | 0.00 | 0.00 | 35 | 1034.0 |
| 20260905181827 | 75 | 226 | 6.0 | 11.0 | 0.00 | 0.00 | 0.00 | 34 | 1034.2 |
| 20260905180350 | 74 | 192 | 3.0 | 12.0 | 0.00 | 0.00 | 0.00 | 31 | 1034.3 |
| 20260905174816 | 74 | 190 | 5.0 | 10.0 | 0.00 | 0.00 | 0.00 | 36 | 1034.4 |
| 20260905173338 | 73 | 202 | 4.0 | 8.0 | 0.00 | 0.00 | 0.00 | 37 | 1034.4 |
| 20260905171850 | 71 | 202 | 3.0 | 10.0 | 0.00 | 0.00 | 0.00 | 39 | 1034.2 |
| 20260905170323 | 71 | 198 | 4.0 | 9.0 | 0.00 | 0.00 | 0.00 | 41 | 1034.3 |
| 20260905164816 | 70 | 204 | 3.0 | 7.0 | 0.00 | 0.00 | 0.00 | 42 | 1034.2 |
| 20260905163330 | 69 | 184 | 5.0 | 8.0 | 0.00 | 0.00 | 0.00 | 45 | 1034.1 |
| 20260905161823 | 68 | 162 | 6.0 | 9.0 | 0.00 | 0.00 | 0.00 | 47 | 1034.0 |
| 20260905160316 | 66 | 147 | 3.0 | 8.0 | 0.00 | 0.00 | 0.00 | 51 | 1033.6 |
| 20260905154851 | 64 | 191 | 4.0 | 7.0 | 0.00 | 0.00 | 0.00 | 54 | 1033.6 |
| 20260905153325 | 62 | 174 | 4.0 | 7.0 | 0.00 | 0.00 | 0.00 | 58 | 1033.6 |
| 20260905151818 | 61 | 180 | 4.0 | 6.0 | 0.00 | 0.00 | 0.00 | 60 | 1033.7 |
| 20260905150331 | 58 | 282 | 0.0 | 8.0 | 0.00 | 0.00 | 0.00 | 65 | 1033.7 |